Flag Weather past 2 weeks in Stonewall, Manitoba, Canada

Now
5 °F

Light snow. Mostly cloudy.


Feels Like: -2 °F
Forecast: 1 / 14 °F
Wind: 3 mph from Northeast

Location: Winnipeg Int. Airportman.

Current Time: Nov 28, 2014 at 10:13:15 AM

Latest Report: Nov 28, 2014 at 9:00 AM


Visibility: 15 mi

Pressure: 30.11 "Hg

Humidity: 72%

Dew point: -2 °F

Location of StonewallLocation

Historic Weather in Stonewall — Graph

°F

Stonewall temperature yesterday

Maximum temperature yesterday: 5 °F (at 4:00 PM)
Minimum temperature yesterday: -17 °F (at 1:00 AM)
Average temperature yesterday: -5 °F

Past Weeks' High & Low Weather Summary

 TemperatureHumidityPressure
High36 °F (Nov 21, 10:00 PM)100% (Nov 23, 11:00 AM)30.65 "Hg (Nov 23, 11:00 AM)
Low-20 °F (Nov 26, 7:00 AM)53% (Nov 14, 2:00 PM)29.35 "Hg (Nov 23, 12:00 AM)
Average10 °F75%30.03 "Hg
* Reported Nov 13 9:00 AM — Nov 28 9:00 AM, Stonewall, Weather by CustomWeather, © 2014

Note: Actual official high and low records may vary slightly from our data, if they occured in-between our weather recording intervals... More about our weather records

Advertising

Stonewall weather history for previous 24 hours

 ConditionsComfort  
Time TempWeatherWind HumidityBarometerVisibility
9:00 AM
Nov 28
5 °FLight snow. Mostly cloudy.3 mph72%30.11 "Hg15 mi
8:00 AM3 °FPartly sunny.5 mph78%30.11 "Hg15 mi
7:00 AM5 °FMostly cloudy.6 mph72%30.13 "Hg15 mi
6:00 AM3 °FPassing clouds.6 mph78%30.14 "Hg15 mi
5:00 AM0 °FPassing clouds.5 mph78%30.15 "Hg15 mi
4:00 AM3 °FPassing clouds.7 mph78%30.16 "Hg15 mi
3:00 AM3 °FPassing clouds.5 mph78%30.18 "Hg15 mi
2:00 AM1 °FPassing clouds.6 mph78%30.20 "Hg15 mi
1:00 AM3 °FPartly cloudy.7 mph72%30.20 "Hg15 mi
12:00 AM3 °FOvercast.10 mph78%30.21 "Hg15 mi
11:00 PM
Nov 27
3 °FOvercast.10 mph72%30.24 "Hg15 mi
10:00 PM5 °FOvercast.13 mph66%30.26 "Hg15 mi
9:00 PM3 °FOvercast.16 mph72%30.25 "Hg15 mi
8:00 PM3 °FMostly cloudy.18 mph72%30.27 "Hg15 mi
7:00 PM3 °FMostly cloudy.14 mph72%30.29 "Hg15 mi
6:00 PM3 °FPartly cloudy.14 mph72%30.31 "Hg15 mi
5:00 PM5 °FPartly cloudy.15 mph72%30.33 "Hg15 mi
4:00 PM5 °FBroken clouds.17 mph72%30.36 "Hg15 mi
3:00 PM3 °FMostly cloudy.16 mph72%30.39 "Hg15 mi
2:00 PM3 °FOvercast.14 mph72%30.40 "Hg15 mi
1:00 PM3 °FOvercast.16 mph66%30.43 "Hg15 mi
12:00 PM1 °FPartly sunny.13 mph65%30.47 "Hg15 mi
11:00 AM-2 °FScattered clouds.14 mph71%30.50 "Hg15 mi
10:00 AM-9 °FSnow flurries. Scattered clouds.9 mph77%30.52 "Hg15 mi
Weather by CustomWeather, © 2014

See weather overviewHow to use our weather pages